[[{"header":{"parameterUnit":"m.s-1","parameterCategory":1,"la1":30.2991,"la2":30.254,"lo1":-89.0895,"lo2":-89.0444,"dy":0.0017,"dx":0.0017,"nx":28,"ny":28,"refTime":"2025-12-03T03:00:00:Z","depth":0,"parameterNumber":2,"parameterNumberName":"U-component_of_WINDS"},"data":[0,0,0,0,0,0,0,0,0,0,0,0,0,0,0,0,0,0,0,0,0,0,0,0,0,0,0,0,0,0,0,0,0,0,0,0,0,0,0,0,0,0,0,0,0,0,0,0,0,0,0,0,0,0,0,0,0,0,-3.6644,-3.6645,0,-3.6752,-3.6753,-3.6755,-3.6695,-3.6692,-3.6689,-3.6687,-3.6798,-3.6803,-3.6809,0,0,0,0,0,0,0,0,0,0,0,0,0,-3.6385,-3.639,-3.6644,-3.6645,-3.6646,-3.6752,-3.6753,-3.6755,-3.6696,-3.6692,-3.6689,-3.6685,-3.6796,-3.6803,-3.681,0,0,0,0,0,0,0,0,0,0,0,0,0,-3.6496,-3.6392,-3.6643,-3.663,-3.6629,-3.6752,-3.6753,-3.6755,-3.6697,-3.6692,-3.6688,-3.6684,-3.6794,-3.6802,-3.6811,-3.6953,0,0,-3.6837,-3.684,0,0,0,0,0,0,0,0,-3.649,-3.6505,-3.663,-3.6631,-3.6631,-3.6706,-3.6703,-3.6821,-3.6698,-3.6671,-3.6687,-3.6681,-3.6771,-3.6781,-3.6811,-3.6958,-3.6962,-3.6838,-3.6843,-3.6846,-3.6849,0,0,0,0,0,0,0,-3.6482,-3.65,-3.6686,-3.6632,-3.6633,-3.6618,-3.6629,-3.6725,-3.6745,-3.6673,-3.6669,-3.6683,-3.677,-3.6803,-3.6813,-3.6964,-3.6837,-3.6845,-3.685,-3.6854,-3.7231,-3.7236,0,0,0,0,0,0,-3.6475,-3.6494,-3.6683,-3.669,-3.6548,-3.6626,-3.6638,-3.6686,-3.6743,-3.6748,-3.6686,-3.668,-3.679,-3.6803,-3.6817,-3.6985,-3.6846,-3.6854,-3.6859,-3.7226,-3.7232,-3.7237,0,0,0,0,0,0,-3.647,-3.6493,-3.6679,-3.6591,-3.6614,-3.6635,-3.669,-3.6691,-3.6723,-3.6753,-3.6757,-3.6716,-3.6787,-3.6805,-3.6919,-3.6988,-3.6858,-3.6866,-3.722,-3.7228,-3.7235,-3.7323,0,0,0,0,0,0,-3.6463,-3.6491,-3.6545,-3.6593,-3.6619,-3.6779,-3.6694,-3.6696,-3.6738,-3.673,-3.6782,-3.6787,-3.6785,-3.6906,-3.6927,-3.6997,-3.6873,-3.7214,-3.7224,-3.7232,-3.7314,-3.7333,-3.7349,0,0,0,0,0,-3.6454,-3.6566,-3.6548,-3.6571,-3.6687,-3.6783,-3.6798,-3.6794,-3.6744,-3.6798,-3.6818,-3.6785,-3.6978,-3.6919,-3.6942,-3.7015,-3.721,-3.7221,-3.7232,-3.7307,-3.7329,-3.7348,0,0,0,0,0,0,-3.6526,-3.6572,-3.6553,-3.6684,-3.673,-3.6773,-3.6841,-3.6818,-3.6879,-3.6869,-3.6862,-3.6874,-3.6992,-3.7016,-3.6949,-3.7155,-3.7086,-3.7102,-3.7135,-3.7157,-3.7174,-3.7164,-3.688,0,0,0,0,0,-3.6558,-3.6632,-3.6668,-3.6781,-3.6805,-3.6819,-3.6861,-3.6854,-3.6902,-3.6921,-3.6948,-3.6996,-3.7067,-3.7113,-3.7181,-3.7319,-3.7328,-3.7381,-3.7398,-3.7412,-3.7425,-3.7498,-3.7521,-3.7273,-3.7273,-3.7273,0,0,-3.6623,-3.6657,-3.6705,-3.6796,-3.6831,-3.6907,-3.6836,-3.6921,-3.6977,-3.6934,-3.7042,-3.7065,-3.7117,-3.7243,-3.73,-3.7266,-3.7496,-3.7426,-3.7437,-3.7442,-3.7511,-3.7535,-3.7555,-3.7281,-3.728,-3.7278,0,0,-3.678,-3.6815,-3.6911,-3.6947,-3.7001,-3.701,-3.7033,-3.708,-3.7093,-3.7202,-3.7171,-3.7238,-3.7361,-3.7399,-3.7435,-3.7607,-3.7579,-3.763,-3.7718,-3.7789,-3.7809,-3.7826,-3.7885,-3.7906,-3.7643,-3.7644,-3.7644,0,-3.6854,-3.6968,-3.6963,-3.705,-3.709,-3.7055,-3.7152,-3.7188,-3.7261,-3.729,-3.7251,-3.7404,-3.7437,-3.757,-3.7612,-3.7644,-3.7669,-3.7622,-3.7806,-3.7823,-3.7839,-3.7896,-3.7918,-3.7649,-3.7648,-3.7648,-3.7647,0,-3.7055,-3.7136,-3.7207,-3.7278,-3.7327,-3.7419,-3.7427,-3.7477,-3.7467,-3.748,-3.7591,-3.763,-3.7703,-3.7735,-3.7726,-3.7867,-3.7844,-3.7807,-3.7736,-3.7869,-3.7921,-3.7943,-3.7657,-3.7655,-3.7653,-3.7652,0,0,-3.7259,-3.7327,-3.7353,-3.7383,-3.7441,-3.7502,-3.7593,-3.7664,-3.7706,-3.7759,-3.7833,-3.7938,-3.7904,-3.7944,-3.7939,-3.8002,-3.8133,-3.7956,-3.7957,-3.7985,-3.8289,-3.8314,-3.834,-3.8116,-3.812,-3.8124,-3.8283,0,-3.7418,-3.7574,-3.7573,-3.7718,-3.779,-3.7759,-3.7837,-3.788,-3.7896,-3.7959,-3.7976,-3.805,-3.8,-3.8024,-3.8085,-3.8104,-3.8194,-3.8093,-3.8183,-3.8186,-3.8168,-3.8367,-3.8395,-3.8544,-3.8304,-3.8308,-3.831,0,-3.7623,-3.7682,-3.7833,-3.7879,-3.7909,-3.798,-3.8045,-3.8107,-3.8156,-3.8162,-3.8208,-3.8193,-3.8284,-3.8214,-3.8338,-3.827,-3.8307,-3.8323,-3.8328,-3.8334,-3.8254,-3.8376,-3.8592,-3.8613,-3.8343,-3.8341,-3.8338,0,-3.7753,-3.787,-3.7975,-3.8003,-3.806,-3.811,-3.8136,-3.818,-3.8223,-3.8281,-3.8308,-3.8376,-3.8413,-3.8465,-3.8469,-3.8418,-3.8594,-3.8525,-3.86,-3.86,-3.8636,-3.8633,-3.8858,-3.8666,-3.8666,-3.8665,-3.8665,0,-3.7929,-3.8022,-3.8034,-3.8098,-3.8202,-3.82,-3.8303,-3.8324,-3.8364,-3.8432,-3.841,-3.8474,-3.8477,-3.8543,-3.8547,-3.8648,-3.8665,-3.8672,-3.8671,-3.8672,-3.8671,-3.8694,-3.8683,-3.8671,-3.867,-3.8669,-3.8668,0,-3.8089,-3.8102,-3.8214,-3.8258,-3.8272,-3.8346,-3.8384,-3.8445,-3.8459,-3.8545,-3.8565,-3.8586,-3.8663,-3.8672,-3.8762,-3.8765,-3.8885,-3.8876,-3.8869,-3.8866,-3.894,-3.8932,-3.9185,-3.9217,-3.9007,-3.9009,-3.9011,0,-3.8199,-3.827,-3.8322,-3.8365,-3.8394,-3.8465,-3.8509,-3.851,-3.8556,-3.8617,-3.8671,-3.8745,-3.8804,-3.8927,-3.895,-3.9019,-3.9008,-3.9092,-3.9018,-3.9016,-3.9006,-3.9,-3.9006,-3.9105,-3.9108,-3.911,-3.9111,0,-3.8391,-3.8393,-3.8457,-3.8523,-3.8576,-3.8628,-3.8677,-3.8714,-3.8722,-3.8775,-3.8852,-3.8898,-3.8989,-3.9062,-3.913,-3.9156,-3.9135,-3.9135,-3.9156,-3.9155,-3.9147,-3.9149,-3.8904,-3.9128,-3.9127,-3.9125,-3.9124,-3.9124,-3.8527,-3.8588,-3.8634,-3.8705,-3.8742,-3.8789,-3.8848,-3.8869,-3.8934,-3.9007,-3.9005,-3.909,-3.9136,-3.9224,-3.9256,-3.9322,-3.9294,-3.9325,-3.9332,-3.9339,-3.9344,-3.914,-3.9335,-3.9334,-3.9334,-3.9334,-3.9333,0,-3.8715,-3.8743,-3.8809,-3.8878,-3.8934,-3.8911,-3.8964,-3.9012,-3.9087,-3.9132,-3.9191,-3.9279,-3.935,-3.938,-3.9449,-3.9497,-3.9488,-3.9514,-3.9509,-3.9515,-3.9367,-3.9341,-3.952,-3.952,-3.952,-3.952,-3.952,-3.952,-3.8819,-3.892,-3.8928,-3.9047,-3.9075,-3.9157,-3.9189,-3.9232,-3.9268,-3.9368,-3.9426,-3.9445,-3.9484,-3.9557,-3.9621,-3.9627,-3.9653,-3.9683,-3.9685,-3.9545,-3.9526,-3.9508,-3.9483,-3.9689,-3.9689,-3.9827,-3.9828,-3.9829]},{"header":{"parameterUnit":"m.s-1","parameterCategory":1,"la1":30.2991,"la2":30.254,"lo1":-89.0895,"lo2":-89.0444,"dy":0.0017,"dx":0.0017,"nx":28,"ny":28,"refTime":"2025-12-03T03:00:00:Z","depth":0,"parameterNumber":3,"parameterNumberName":"V-component_of_WINDS"},"data":[0,0,0,0,0,0,0,0,0,0,0,0,0,0,0,0,0,0,0,0,0,0,0,0,0,0,0,0,0,0,0,0,0,0,0,0,0,0,0,0,0,0,0,0,0,0,0,0,0,0,0,0,0,0,0,0,0,0,1.3436,1.3435,0,1.337,1.3369,1.3368,1.3247,1.3245,1.3243,1.3241,1.3174,1.3175,1.3175,0,0,0,0,0,0,0,0,0,0,0,0,0,1.3461,1.3461,1.3436,1.3435,1.3434,1.337,1.3369,1.3368,1.3248,1.3245,1.3242,1.3239,1.3174,1.3174,1.3175,0,0,0,0,0,0,0,0,0,0,0,0,0,1.3428,1.3461,1.3436,1.3367,1.336,1.337,1.3369,1.3368,1.3248,1.3245,1.3241,1.3238,1.3174,1.3174,1.3175,1.3248,0,0,1.3177,1.3177,0,0,0,0,0,0,0,0,1.343,1.3427,1.3378,1.3371,1.3364,1.3313,1.3353,1.3328,1.3249,1.3291,1.324,1.3236,1.3223,1.322,1.3215,1.3245,1.3242,1.3177,1.3177,1.3177,1.3178,0,0,0,0,0,0,0,1.3433,1.343,1.341,1.3377,1.3369,1.334,1.3331,1.3348,1.3277,1.3287,1.3278,1.3272,1.3219,1.3215,1.3212,1.3241,1.3177,1.3177,1.3178,1.3178,1.333,1.3333,0,0,0,0,0,0,1.3445,1.3432,1.3412,1.3408,1.3389,1.3342,1.3332,1.3333,1.3277,1.3265,1.3275,1.3266,1.3215,1.3212,1.321,1.3292,1.3177,1.3178,1.3178,1.3326,1.3331,1.3335,0,0,0,0,0,0,1.3446,1.3444,1.3415,1.3418,1.3412,1.3345,1.3347,1.3333,1.3329,1.3268,1.3255,1.3283,1.3212,1.3209,1.324,1.3288,1.3178,1.3179,1.3322,1.3327,1.3333,1.3458,0,0,0,0,0,0,1.3447,1.3445,1.3472,1.3419,1.3412,1.3445,1.335,1.3335,1.333,1.3319,1.3272,1.3261,1.3209,1.324,1.324,1.3287,1.3179,1.3317,1.3324,1.3331,1.345,1.3467,1.3483,0,0,0,0,0,1.3448,1.351,1.3474,1.3472,1.3444,1.3448,1.3444,1.3383,1.3335,1.3361,1.3322,1.3263,1.3283,1.3244,1.3244,1.3291,1.3314,1.3322,1.333,1.3442,1.3464,1.3482,0,0,0,0,0,0,1.357,1.3502,1.3461,1.3507,1.3485,1.3428,1.3459,1.3408,1.3399,1.3389,1.3314,1.3304,1.3346,1.3321,1.3279,1.336,1.3289,1.3298,1.3374,1.3394,1.3411,1.3416,1.318,0,0,0,0,0,1.3602,1.3611,1.3551,1.3598,1.3589,1.3527,1.3526,1.3481,1.3455,1.3445,1.3408,1.3386,1.3387,1.3389,1.3387,1.3446,1.3434,1.3479,1.3495,1.3509,1.3518,1.3548,1.3567,1.3362,1.3362,1.3362,0,0,1.3669,1.3633,1.3643,1.3621,1.3599,1.3611,1.3519,1.3535,1.3544,1.3448,1.3474,1.3447,1.3417,1.3463,1.3481,1.3444,1.3572,1.352,1.3531,1.3532,1.3559,1.3578,1.3596,1.3367,1.3366,1.3365,0,0,1.3796,1.377,1.3806,1.3785,1.3752,1.371,1.372,1.3671,1.3649,1.3675,1.3603,1.3613,1.3616,1.3598,1.359,1.3713,1.3658,1.3714,1.3801,1.3831,1.3848,1.3862,1.3906,1.3923,1.3723,1.3723,1.3723,0,1.3884,1.3898,1.3831,1.3852,1.3845,1.3759,1.3796,1.3779,1.3747,1.3745,1.3704,1.3708,1.3681,1.3722,1.3752,1.3748,1.3757,1.3719,1.3851,1.3864,1.3876,1.3918,1.3935,1.373,1.3729,1.3728,1.3728,0,1.4007,1.4018,1.4052,1.4023,1.402,1.4049,1.3988,1.3993,1.3949,1.3912,1.3941,1.3906,1.3896,1.3902,1.3859,1.3938,1.3916,1.3864,1.3791,1.3904,1.3942,1.3957,1.374,1.3737,1.3735,1.3734,0,0,1.4208,1.4143,1.4157,1.4143,1.4101,1.4109,1.4135,1.4124,1.4131,1.4112,1.4133,1.4139,1.4091,1.4081,1.4036,1.4063,1.4163,1.4007,1.4005,1.4038,1.4249,1.4288,1.4308,1.4127,1.413,1.4132,1.4251,0,1.4327,1.4366,1.4308,1.4361,1.4371,1.429,1.4313,1.429,1.4257,1.4262,1.4225,1.4231,1.4167,1.4161,1.4184,1.4146,1.4205,1.4137,1.4146,1.4147,1.4156,1.4327,1.4369,1.4483,1.4266,1.4268,1.427,0,1.447,1.4458,1.4513,1.4468,1.447,1.4492,1.4478,1.4484,1.4457,1.4431,1.4422,1.4368,1.4391,1.4321,1.4353,1.4308,1.4309,1.4291,1.4294,1.4293,1.4216,1.4331,1.4518,1.4536,1.4293,1.4291,1.4289,0,1.4612,1.461,1.4643,1.4634,1.4582,1.46,1.4579,1.4549,1.4547,1.4536,1.4534,1.4526,1.4522,1.4518,1.4464,1.4418,1.4503,1.4428,1.4483,1.4485,1.4504,1.4504,1.4694,1.4505,1.4505,1.4504,1.4504,0,1.4751,1.4787,1.4706,1.4726,1.4765,1.4698,1.4739,1.4711,1.4685,1.4699,1.4629,1.4643,1.4571,1.4578,1.4536,1.457,1.4568,1.4549,1.4537,1.4555,1.4558,1.4554,1.4545,1.4509,1.4508,1.4507,1.4506,0,1.4916,1.4863,1.4893,1.4842,1.4831,1.4862,1.4819,1.4836,1.4799,1.4818,1.4818,1.476,1.4766,1.4711,1.4706,1.4678,1.4731,1.4705,1.474,1.4732,1.479,1.4786,1.4986,1.5009,1.4805,1.4807,1.4808,0,1.5008,1.5034,1.4986,1.499,1.4974,1.4981,1.4979,1.4915,1.4916,1.4888,1.4909,1.4909,1.4905,1.4917,1.4875,1.4872,1.4845,1.4916,1.4844,1.4862,1.4847,1.4847,1.4849,1.4931,1.4933,1.4936,1.4937,0,1.5177,1.5149,1.5148,1.514,1.5139,1.5129,1.5114,1.5122,1.5052,1.5057,1.5061,1.5059,1.5054,1.5055,1.5043,1.5023,1.4969,1.496,1.4973,1.4991,1.5011,1.5002,1.4781,1.4956,1.4954,1.4953,1.4952,1.4951,1.5308,1.5328,1.5298,1.53,1.5282,1.5271,1.5284,1.5249,1.5252,1.5242,1.5205,1.5216,1.519,1.5169,1.5154,1.5163,1.5129,1.5147,1.5152,1.5157,1.5168,1.501,1.5161,1.516,1.516,1.5159,1.5159,0,1.5474,1.5451,1.5453,1.5435,1.5437,1.5386,1.5368,1.5373,1.5384,1.5364,1.5362,1.5368,1.5369,1.5328,1.5324,1.5339,1.5315,1.534,1.5339,1.5335,1.5199,1.5188,1.536,1.536,1.536,1.536,1.536,1.536,1.556,1.5591,1.5561,1.5584,1.5561,1.5571,1.5565,1.5555,1.5538,1.5548,1.5548,1.5521,1.5494,1.5487,1.5487,1.5474,1.5477,1.5511,1.5491,1.5364,1.5345,1.5326,1.5316,1.5512,1.5512,1.5626,1.5627,1.5628]}]]